Find OneWeb SL0207

NORAD ID: 48242 Int'l Des: 2021-031 Owner: ONEWEBN Country: UK Constellation: oneweb operational
LEOCIRCULARPOLARONEWEB_TYPE

Current View

Loading 3D Globe...

About OneWeb SL0207

Description loading...

Upcoming Passes

Passes for default location (London). Set your location on the main map for personalized predictions.

Altitude History

Loading altitude history...

Two-Line Element Set

1 48242U 21031AJ 26149.83380518 .00000117 00000-0 28086-3 0 9991
2 48242 87.8953 293.3577 0002076 103.6374 256.4987 13.14501886245882
Epoch: May 29, 2026 • Age: 19 hours

Current Status

Altitude 1208.7 km
Velocity 7.25 km/s
Sub-Earth Point -1.95°S, 2.9°W
Launch Date Apr 25, 2021
Age 5 years
Type internet

Technical Details

Classification Payload
Mass 148.00 kg
Dry Mass 140.00 kg
Total Mass 148.00 kg
Length 1.30 m
Diameter 1.00 m
Span 5.00 m
Shape Trapezoid+2 pan
Manufacturer ONEWUS
Bus Type ARROW
Phase Status In Orbit
Owner/State ONEWEBN/UK

Most Searched